[[{"header":{"parameterUnit":"m.s-1","parameterCategory":1,"la1":30.2991,"la2":30.254,"lo1":-89.0895,"lo2":-89.0444,"dy":0.0017,"dx":0.0017,"nx":28,"ny":28,"refTime":"2024-08-01T03:00:00:Z","depth":0,"parameterNumber":2,"parameterNumberName":"U-component_of_WINDS"},"data":[0,0,0,0,0,0,0,0,0,0,0,0,0,0,0,0,0,0,0,0,0,0,0,0,0,0,0,0,0,0,0,0,0,0,0,0,0,0,0,0,0,0,0,0,0,0,0,0,0,0,0,0,0,0,0,0,0,0,1.7945,1.7947,0,1.8079,1.808,1.8082,1.8084,1.8083,1.8081,1.8079,1.8217,1.8222,1.8227,0,0,0,0,0,0,0,0,0,0,0,0,0,1.7692,1.7696,1.7945,1.7947,1.7949,1.8079,1.808,1.8082,1.8085,1.8083,1.8081,1.8079,1.8215,1.8221,1.8228,0,0,0,0,0,0,0,0,0,0,0,0,0,1.7811,1.7698,1.7945,1.7965,1.7969,1.8078,1.8081,1.8083,1.8085,1.8083,1.808,1.8078,1.8213,1.8221,1.8228,1.8327,0,0,1.8252,1.8256,0,0,0,0,0,0,0,0,1.7804,1.782,1.7961,1.7964,1.7968,1.8062,1.8041,1.8165,1.8086,1.8041,1.8079,1.8077,1.8168,1.8179,1.821,1.8333,1.8339,1.8253,1.8258,1.8261,1.8263,0,0,0,0,0,0,0,1.7796,1.7815,1.7998,1.7963,1.7967,1.7968,1.7982,1.8065,1.8117,1.8045,1.8045,1.8061,1.8169,1.8202,1.8213,1.8341,1.8253,1.826,1.8265,1.8268,1.855,1.8553,0,0,0,0,0,0,1.7784,1.7808,1.7994,1.8002,1.7878,1.7974,1.799,1.8035,1.8116,1.8126,1.8063,1.806,1.819,1.8204,1.8218,1.8337,1.8261,1.8268,1.8273,1.8548,1.8551,1.8554,0,0,0,0,0,0,1.7778,1.78,1.7989,1.7905,1.7929,1.7981,1.8031,1.8039,1.8072,1.813,1.8139,1.8087,1.8188,1.8207,1.8299,1.8342,1.8272,1.8279,1.8544,1.8549,1.8552,1.8577,0,0,0,0,0,0,1.7771,1.7798,1.7837,1.7906,1.7934,1.8068,1.8034,1.8043,1.8085,1.8083,1.8155,1.8164,1.8188,1.8287,1.8307,1.8351,1.8285,1.8541,1.8546,1.8551,1.8572,1.8581,1.8589,0,0,0,0,0,1.7762,1.7839,1.7838,1.7861,1.7982,1.8071,1.8086,1.8112,1.8088,1.8127,1.8164,1.8162,1.8334,1.8297,1.8319,1.8366,1.8538,1.8545,1.8551,1.8569,1.8579,1.8589,0,0,0,0,0,0,1.7773,1.7848,1.7849,1.795,1.8004,1.8071,1.812,1.8123,1.8185,1.818,1.821,1.8226,1.8317,1.8351,1.8309,1.8465,1.8433,1.8444,1.8439,1.845,1.8458,1.8448,1.8292,0,0,0,0,0,1.7788,1.7853,1.7915,1.7998,1.8025,1.8068,1.8108,1.8122,1.8179,1.8202,1.8246,1.8301,1.8367,1.8411,1.8475,1.8577,1.8592,1.862,1.8628,1.8635,1.8644,1.8699,1.8712,1.8575,1.8575,1.8575,0,0,1.7818,1.7867,1.7907,1.8002,1.8045,1.8112,1.8087,1.8159,1.8209,1.8213,1.8303,1.8337,1.84,1.8497,1.8542,1.8528,1.8685,1.8643,1.8648,1.8653,1.8707,1.8719,1.8731,1.8579,1.8578,1.8578,0,0,1.7907,1.7951,1.8025,1.8068,1.8134,1.8162,1.8179,1.8246,1.8268,1.8358,1.8362,1.8422,1.8536,1.858,1.8618,1.8722,1.8722,1.8742,1.8785,1.8838,1.8849,1.8858,1.8894,1.8907,1.8751,1.8751,1.8751,0,1.7936,1.8037,1.8062,1.8134,1.8175,1.8181,1.8256,1.8297,1.838,1.8408,1.8391,1.8533,1.8577,1.8683,1.8708,1.8739,1.8759,1.8734,1.8845,1.8855,1.8864,1.8899,1.8912,1.8753,1.8753,1.8752,1.8752,0,1.8069,1.8139,1.819,1.827,1.8317,1.8389,1.8425,1.847,1.848,1.8509,1.86,1.8652,1.8726,1.8753,1.8765,1.8861,1.885,1.8839,1.8808,1.8879,1.8912,1.8925,1.8756,1.8755,1.8754,1.8754,0,0,1.817,1.8261,1.828,1.8315,1.8387,1.8441,1.8513,1.8585,1.8622,1.8679,1.874,1.8836,1.8825,1.8867,1.8884,1.893,1.9007,1.8913,1.8915,1.8928,1.9115,1.9123,1.9138,1.9008,1.901,1.9013,1.9109,0,1.8266,1.8394,1.8418,1.853,1.8594,1.86,1.8663,1.8713,1.8742,1.88,1.8832,1.8899,1.888,1.8906,1.8952,1.8988,1.9045,1.8982,1.9064,1.9066,1.9047,1.9155,1.9164,1.9253,1.9123,1.9125,1.9126,0,1.8395,1.8454,1.8572,1.8634,1.8661,1.8717,1.8784,1.884,1.8897,1.8915,1.8961,1.8972,1.9046,1.9012,1.9114,1.907,1.9105,1.9128,1.9132,1.914,1.91,1.9165,1.9282,1.9295,1.9147,1.9145,1.9144,0,1.8455,1.8564,1.8648,1.8678,1.8753,1.8792,1.8825,1.8879,1.8921,1.8979,1.9006,1.9072,1.9109,1.916,1.9188,1.916,1.9287,1.9256,1.9303,1.9303,1.933,1.9327,1.9453,1.9354,1.9353,1.9353,1.9353,0,1.8559,1.863,1.8676,1.8727,1.8807,1.8834,1.8912,1.8944,1.8992,1.905,1.906,1.9113,1.9147,1.9206,1.9228,1.9308,1.9325,1.9341,1.9346,1.934,1.9337,1.9363,1.9357,1.9357,1.9356,1.9355,1.9355,0,1.8639,1.8673,1.8764,1.8827,1.8844,1.89,1.8954,1.9004,1.9032,1.9105,1.9123,1.9168,1.9237,1.927,1.9356,1.937,1.9461,1.9463,1.9442,1.9443,1.9489,1.9484,1.9634,1.9654,1.9543,1.9544,1.9545,0,1.8703,1.8758,1.8826,1.8865,1.8899,1.8962,1.9003,1.9031,1.9074,1.9142,1.9184,1.9253,1.931,1.9419,1.9459,1.9525,1.9527,1.9575,1.9537,1.9528,1.9526,1.9522,1.9527,1.9582,1.9583,1.9584,1.9584,0,1.8812,1.8825,1.8885,1.895,1.8999,1.9052,1.9104,1.9135,1.9171,1.9219,1.9289,1.9333,1.942,1.9488,1.9556,1.9589,1.9593,1.9596,1.961,1.9604,1.9589,1.9596,1.9459,1.9592,1.9592,1.9591,1.9591,1.959,1.8885,1.8934,1.8989,1.9054,1.9096,1.9144,1.9193,1.9227,1.9286,1.9359,1.9372,1.9446,1.95,1.9591,1.9627,1.9685,1.9674,1.9695,1.97,1.9705,1.9706,1.958,1.9698,1.9697,1.9697,1.9697,1.9697,0,1.8994,1.9029,1.9089,1.9161,1.9212,1.921,1.9267,1.931,1.9375,1.9425,1.9481,1.956,1.9626,1.9671,1.9737,1.9775,1.9778,1.9791,1.9788,1.9796,1.9713,1.9694,1.9788,1.9788,1.9788,1.9787,1.9787,1.9787,1.9056,1.9137,1.9157,1.9259,1.9294,1.9366,1.9398,1.9442,1.9482,1.957,1.9625,1.9653,1.9701,1.9771,1.983,1.9842,1.9865,1.9879,1.9889,1.9811,1.9802,1.9793,1.9774,1.9884,1.9884,1.9967,1.9968,1.9968]},{"header":{"parameterUnit":"m.s-1","parameterCategory":1,"la1":30.2991,"la2":30.254,"lo1":-89.0895,"lo2":-89.0444,"dy":0.0017,"dx":0.0017,"nx":28,"ny":28,"refTime":"2024-08-01T03:00:00:Z","depth":0,"parameterNumber":3,"parameterNumberName":"V-component_of_WINDS"},"data":[0,0,0,0,0,0,0,0,0,0,0,0,0,0,0,0,0,0,0,0,0,0,0,0,0,0,0,0,0,0,0,0,0,0,0,0,0,0,0,0,0,0,0,0,0,0,0,0,0,0,0,0,0,0,0,0,0,0,3.2133,3.2133,0,3.216,3.2161,3.2161,3.2108,3.2106,3.2105,3.2103,3.213,3.2132,3.2135,0,0,0,0,0,0,0,0,0,0,0,0,0,3.2032,3.2034,3.2133,3.2133,3.2134,3.216,3.2161,3.2161,3.2109,3.2106,3.2104,3.2102,3.2129,3.2132,3.2135,0,0,0,0,0,0,0,0,0,0,0,0,0,3.2069,3.2035,3.2133,3.2111,3.2109,3.216,3.2161,3.2161,3.2109,3.2106,3.2104,3.2101,3.2128,3.2132,3.2135,3.2209,0,0,3.2146,3.2147,0,0,0,0,0,0,0,0,3.2067,3.2073,3.2114,3.2112,3.211,3.2128,3.2135,3.2177,3.211,3.2109,3.2103,3.21,3.2131,3.2135,3.2145,3.221,3.2211,3.2146,3.2148,3.215,3.2151,0,0,0,0,0,0,0,3.2065,3.2072,3.2144,3.2114,3.2112,3.2098,3.2101,3.2143,3.2134,3.2109,3.2105,3.2109,3.213,3.2142,3.2146,3.2212,3.2146,3.2149,3.2151,3.2153,3.2336,3.2339,0,0,0,0,0,0,3.2065,3.207,3.2143,3.2144,3.2082,3.2102,3.2105,3.2125,3.2134,3.2133,3.2111,3.2106,3.2137,3.2142,3.2146,3.2232,3.215,3.2153,3.2155,3.2333,3.2337,3.234,0,0,0,0,0,0,3.2063,3.2072,3.2142,3.2106,3.2114,3.2107,3.213,3.2127,3.2139,3.2136,3.2134,3.2125,3.2136,3.2141,3.2193,3.2232,3.2155,3.2158,3.233,3.2334,3.2338,3.2404,0,0,0,0,0,0,3.2061,3.2072,3.2101,3.2107,3.2116,3.2189,3.2132,3.2129,3.2145,3.2139,3.2148,3.2147,3.2134,3.2188,3.2197,3.2235,3.2161,3.2327,3.2332,3.2337,3.2399,3.241,3.242,0,0,0,0,0,3.2057,3.2119,3.2103,3.2112,3.2152,3.2192,3.2197,3.218,3.2149,3.2177,3.2174,3.2147,3.2227,3.2194,3.2203,3.2244,3.2324,3.233,3.2336,3.2394,3.2408,3.242,0,0,0,0,0,0,3.2117,3.2119,3.2101,3.2167,3.2179,3.2183,3.2218,3.2196,3.2218,3.2211,3.219,3.2192,3.2248,3.2251,3.2215,3.2314,3.227,3.2278,3.231,3.2324,3.2334,3.2332,3.2164,0,0,0,0,0,3.2138,3.2171,3.217,3.2228,3.2235,3.2226,3.2242,3.2229,3.2241,3.2246,3.2247,3.2259,3.2287,3.2305,3.2331,3.2399,3.2399,3.2431,3.2441,3.245,3.2458,3.2492,3.2506,3.236,3.236,3.236,0,0,3.2182,3.2187,3.2209,3.224,3.2248,3.2282,3.2231,3.2269,3.2293,3.2251,3.23,3.2302,3.2314,3.2374,3.24,3.2378,3.2498,3.2458,3.2465,3.2468,3.25,3.2514,3.2526,3.2364,3.2364,3.2363,0,0,3.2277,3.2285,3.2333,3.2342,3.2355,3.2348,3.2359,3.2365,3.2365,3.2413,3.2382,3.241,3.2459,3.2468,3.2479,3.2576,3.2551,3.2585,3.2641,3.2675,3.2686,3.2696,3.2729,3.2742,3.2592,3.2592,3.2592,0,3.233,3.2379,3.2361,3.24,3.2414,3.2378,3.2425,3.2435,3.2455,3.2465,3.244,3.2498,3.2504,3.2565,3.2588,3.2599,3.261,3.2584,3.2686,3.2696,3.2705,3.2736,3.2749,3.2596,3.2596,3.2595,3.2595,0,3.2442,3.2477,3.2514,3.2534,3.2552,3.2595,3.2582,3.2602,3.2586,3.2582,3.263,3.2636,3.2661,3.2674,3.2659,3.2732,3.2718,3.269,3.2644,3.2723,3.2752,3.2764,3.2602,3.26,3.2599,3.2598,0,0,3.2578,3.2586,3.2599,3.2607,3.2618,3.2643,3.2684,3.2708,3.2726,3.274,3.2773,3.2814,3.2787,3.28,3.2786,3.2815,3.289,3.2783,3.2783,3.2802,3.2969,3.2989,3.3004,3.2873,3.2876,3.2877,3.2967,0,3.2672,3.2743,3.2726,3.2795,3.2826,3.2791,3.2826,3.2836,3.2832,3.2856,3.2851,3.288,3.2844,3.2851,3.2879,3.2875,3.2923,3.2868,3.2903,3.2904,3.29,3.3019,3.3041,3.3126,3.2979,3.2981,3.2982,0,3.2792,3.281,3.2883,3.2886,3.2898,3.2931,3.295,3.2974,3.2984,3.2979,3.2992,3.2971,3.301,3.2964,3.3017,3.298,3.2993,3.2993,3.2996,3.2998,3.2948,3.3024,3.3153,3.3165,3.3,3.2999,3.2997,0,3.2882,3.2925,3.2973,3.2981,3.2987,3.301,3.3013,3.302,3.3035,3.3052,3.3061,3.3082,3.3094,3.311,3.3095,3.3064,3.315,3.3103,3.3145,3.3146,3.3165,3.3164,3.3297,3.3175,3.3175,3.3174,3.3174,0,3.2989,3.3034,3.3014,3.3044,3.3093,3.3072,3.3121,3.312,3.3126,3.3154,3.3125,3.3152,3.313,3.3155,3.3143,3.3188,3.3194,3.319,3.3186,3.3192,3.3192,3.32,3.3193,3.3178,3.3177,3.3176,3.3176,0,3.3098,3.3087,3.3137,3.3137,3.3138,3.3174,3.3174,3.3201,3.3194,3.323,3.3237,3.3226,3.3253,3.324,3.3269,3.326,3.3317,3.3306,3.3314,3.3311,3.3353,3.3349,3.3496,3.3513,3.338,3.3382,3.3383,0,3.3167,3.3201,3.3204,3.3221,3.3226,3.3253,3.3268,3.3248,3.3264,3.3276,3.3301,3.3326,3.3345,3.339,3.3384,3.3405,3.3394,3.3443,3.3397,3.3401,3.3393,3.3391,3.3393,3.3453,3.3454,3.3456,3.3457,0,3.3289,3.3281,3.3304,3.3323,3.3341,3.3356,3.3368,3.3383,3.3364,3.3383,3.3411,3.3425,3.3453,3.3478,3.3496,3.3498,3.3474,3.3471,3.3482,3.3488,3.3491,3.3489,3.3339,3.3468,3.3467,3.3466,3.3465,3.3465,3.338,3.3407,3.3413,3.3438,3.3445,3.3457,3.3481,3.3477,3.3499,3.3521,3.3508,3.3539,3.3546,3.3567,3.3573,3.3597,3.3577,3.3592,3.3596,3.36,3.3605,3.3488,3.36,3.36,3.3599,3.3599,3.3599,0,3.35,3.3501,3.3525,3.3542,3.3561,3.3536,3.3548,3.3565,3.3594,3.3602,3.362,3.365,3.3673,3.3669,3.369,3.3709,3.3699,3.3715,3.3713,3.3714,3.3623,3.3611,3.3724,3.3724,3.3724,3.3724,3.3724,3.3724,3.3564,3.3609,3.3601,3.3648,3.3649,3.368,3.3688,3.3698,3.3704,3.3739,3.3758,3.3755,3.3758,3.3778,3.3797,3.3795,3.3804,3.3825,3.3819,3.3733,3.3721,3.3709,3.3698,3.3827,3.3827,3.3908,3.3908,3.3909]}]]